Regional Weather Roundup
Issued by NWS

Home | Current Version | Previous Version | Graphics & Text | Print | Product List | Glossary On
Versions: 1 2 3 4 5 6 7 8 9 10 11 12 13 14 15 16 17 18 19 20 21 22 23 24 25 26 27 28 29 30 31 32 33 34 35 36 37 38 39 40 41 42 43 44 45 46 47 48 49 50
867
ASUS45 KBOU 231807
RWRCO

WEATHER ROUNDUP FOR COLORADO
NATIONAL WEATHER SERVICE DENVER/BOULDER CO
1200 PM MDT FRI JUN 23 2017

NOTE: "FAIR" INDICATES FEW OR NO CLOUDS BELOW 12000 FEET WITH NO
SIGNIFICANT WEATHER AND/OR OBSTRUCTIONS TO VISIBILITY.

COZ001>005-013-030-031-231900-
...NORTHWEST COLORADO...

CITY           SKY/WX    TMP DP  RH WIND       PRES   REMARKS
CRAIG          FAIR      72  35  25 N7        30.23F
HAYDEN         FAIR      68  34  28 NW6       30.25S
MEEKER         FAIR      72  39  30 SW7       30.23F
RABBIT EARS PA FAIR      54  30  40 W9G17     30.46S
STEAMBOAT SPGS FAIR      66  40  37 SW5       30.25F
WALDEN         FAIR      64  32  29 NW10      30.31F
$$

COZ006>008-011-231900-
...WEST CENTRAL VALLEYS...

CITY           SKY/WX    TMP DP  RH WIND       PRES   REMARKS
GRAND JUNCTION FAIR      85  28  12 VRB5      30.09F
MONTROSE       FAIR      80  32  17 VRB5      30.16F
EAGLE          SUNNY     79  34  19 SW9       30.18F
RIFLE          FAIR      81  29  15 W7        30.13F
DELTA          FAIR      85  31  14 CALM      30.12F
NUCLA          FAIR      82  21  10 SW5       30.20F
$$

COZ017>023-064>068-231900-
...SOUTHWEST COLORADO...

CITY           SKY/WX    TMP DP  RH WIND       PRES   REMARKS
DURANGO        FAIR      88   6   4 W20G29    30.15F
CORTEZ         FAIR      89  17   7 CALM      30.13F
PAGOSA SPRINGS FAIR      81  20  10 S14G20    30.23F
TELLURIDE      FAIR     N/A N/A N/A W10G18    30.40S
WOLF CREEK PAS FAIR      59  25  27 W8        30.61S
$$

COZ009-010-012-014-032>034-037-058>063-231900-
...CENTRAL COLORADO...

CITY           SKY/WX    TMP DP  RH WIND       PRES   REMARKS
ASPEN          FAIR      76  33  21 N8G16     30.25F
BUENA VISTA    FAIR      71  42  35 SE12G18   30.28F
COPPER MTN     FAIR      59  16  18 W10G21    30.55S
BERTHOUD PASS  FAIR      48  36  61 NW24      30.55S
COTTONWOOD PAS FAIR      66  45  45 SE13G21   30.40F
GUNNISON       FAIR      73  33  23 CALM      30.26F
KREMMLING      NOT AVBL
LEADVILLE      FAIR      65  24  21 MISG      30.37F
MONARCH PASS   FAIR      59  27  29 SW20G29   30.66F
SALIDA         FAIR      67  50  54 E24G30    30.35S
SUNLIGHT       FAIR      59  25  27 W6        30.51F
WILKERSON PASS PTSUNNY   52  43  71 SW7       30.52F
$$

COZ069>075-231900-
...SAN LUIS VALLEY/SANGRE DE CRISTO MOUNTAINS...

CITY           SKY/WX    TMP DP  RH WIND       PRES   REMARKS
ALAMOSA        FAIR      76  47  35 E8G18     30.23F
DEL NORTE      FAIR      74  37  26 SE9       30.26F
LA VETA PASS   SNOW      43  41  93 N18G25    30.57F VSB<1/4
SAGUACHE       FAIR      77  32  19 S8        30.23F
$$

COZ035-036-038>040-231900-
...NORTHERN COLORADO FRONT RANGE...

CITY           SKY/WX    TMP DP  RH WIND       PRES   REMARKS
DENVER INTL AP CLOUDY    53  42  66 E12       30.30F
DMNS CITY PARK   N/A     53  43  68 E13       30.30S
AURORA         CLOUDY    51  44  77 E7        30.31F
FRONT RANGE AP CLOUDY    54  43  66 E8G18     30.32F
ERIE MUNI ARPT CLOUDY    54  43  67 E7        30.29F
BOULDER MUN AP CLOUDY    52  45  76 E3        30.30S
CENTENNIAL     CLOUDY    50  45  83 E9        30.31F
BROOMFIELD     CLOUDY    52  45  76 SE5       30.31F
FORT COLLINS   CLOUDY    58  43  57 S9        30.29F
LONGMONT       CLOUDY    56  43  60 S3        30.31F
$$

COZ041-046-047-076>085-087-088-231900-
...PIKES PEAK/PALMER DIVIDE AND SOUTHERN FOOTHILLS...

CITY           SKY/WX    TMP DP  RH WIND       PRES   REMARKS
COLO. SPRINGS  CLOUDY    52  44  74 S6        30.35S
A. F. ACADEMY  CLOUDY    52  42  70 S8        30.33F
SCHRIEVER AFB  NOT AVBL
CHEYENNE MTN   NOT AVBL
ELLICOTT         N/A    N/A N/A N/A NE6       30.33S
FALCON           N/A     48  43  81 SE5       30.36F
FORT CARSON    CLOUDY    52  44  74 S6        30.33F
LIMON          CLOUDY    57  43  59 MISG      30.30F
MONUMENT HILL  CLOUDY    45  43  93 SE6       30.36F
CANON CITY     CLOUDY    54  52  94 E7        30.32F
WALSENBURG     CLOUDY    52  50  93 NE6       30.35F
TRINIDAD       LGT RAIN  53  48  83 NE9       30.33S
$$

COZ042>045-048>051-090-091-231900-
...NORTHEAST COLORADO...

CITY           SKY/WX    TMP DP  RH WIND       PRES   REMARKS
GREELEY ARPT   CLOUDY    62  43  49 SW6       30.29F
AKRON          CLOUDY    59  41  51 NW7       30.28F
BURLINGTON     CLOUDY    64  46  52 N10       30.26S
WRAY           CLOUDY    70  43  37 N9G17     30.23F
YUMA           NOT AVBL
STERLING       CLOUDY    63  43  48 W10       30.25F
HOLYOKE        NOT AVBL
FORT MORGAN    CLOUDY    60  40  48 CALM      30.29S
$$

COZ086-089-092>099-231900-
...SOUTHEAST COLORADO...

CITY           SKY/WX    TMP DP  RH WIND       PRES   REMARKS
PUEBLO         LGT RAIN  53  50  89 NE12      30.31F FOG
LA JUNTA       CLOUDY    62  47  57 NE13      30.28S
LAMAR          CLOUDY    63  41  44 NE10      30.24R
SPRINGFIELD      N/A     66  48  52 NE15G24   30.24S
$$




USA.gov is the U.S. government's official web portal to all federal, state and local government web resources and services.